GW0101 Weather Reports


time (UTC)temp
F
wind
direction
speed
knots
gust
knots
rain 1hr
in
rain 24hr
in
rain mn
in
humidity
%
barometer
mb
20260505140104 64 292 0.0 0.9 0.00 0.00 0.00 70 1018.5
20260505130103 58 223 0.0 1.7 0.00 0.00 0.00 77 1017.6
20260505123603 56 255 0.9 2.6 0.00 0.00 0.00 80 1017.6
20260505063604 59 185 0.9 2.6 0.00 0.00 0.00 62 1016.7
20260505062104 60 205 1.7 2.6 0.00 0.00 0.00 61 1016.9
20260505061604 60 199 1.7 2.6 0.00 0.00 0.00 61 1016.9
20260505060603 61 179 0.9 2.6 0.00 0.00 0.00 60 1017.0
20260505055604 61 199 1.7 5.2 0.00 0.00 0.00 60 1017.0
20260505054603 61 205 1.7 6.1 0.00 0.00 0.00 59 1016.9
20260505053603 61 194 2.6 6.1 0.00 0.00 0.00 58 1017.1
20260505052104 62 166 2.6 7.8 0.00 0.00 0.00 58 1017.1
20260505051604 62 176 1.7 5.2 0.00 0.00 0.00 58 1017.1
20260505050103 62 177 3.5 7.8 0.00 0.00 0.00 57 1017.0
20260505041603 63 180 2.6 5.2 0.00 0.00 0.00 57 1017.1
20260505040104 64 182 1.7 5.2 0.00 0.00 0.00 56 1017.2
20260505035604 64 166 2.6 5.2 0.00 0.00 0.00 55 1017.2
20260505034104 64 171 2.6 6.1 0.00 0.00 0.00 55 1017.2
20260505033603 64 172 2.6 6.1 0.00 0.00 0.00 55 1017.3
20260505033104 65 156 1.7 7.8 0.00 0.00 0.00 55 1017.3
20260505032604 65 166 1.7 7.8 0.00 0.00 0.00 55 1017.3
20260505031104 65 190 2.6 5.2 0.00 0.00 0.00 55 1017.3
20260505030104 65 177 1.7 2.6 0.00 0.00 0.00 55 1017.3
20260505025604 65 177 0.9 4.3 0.00 0.00 0.00 55 1017.3
20260505023604 65 167 0.9 2.6 0.00 0.00 0.00 54 1017.2
20260505021103 66 178 0.0 1.7 0.00 0.00 0.00 52 1017.0
20260505020104 66 178 0.0 2.6 0.00 0.00 0.00 52 1017.2
20260505015103 67 185 0.9 2.6 0.00 0.00 0.00 51 1016.9
20260505014104 67 179 0.0 2.6 0.00 0.00 0.00 50 1016.9
20260505013104 68 180 0.0 2.6 0.00 0.00 0.00 49 1016.7
20260505012104 68 179 0.9 2.6 0.00 0.00 0.00 48 1016.8
20260505010104 70 179 0.9 2.6 0.00 0.00 0.00 46 1016.6
20260505005604 70 175 0.0 2.6 0.00 0.00 0.00 46 1016.5
20260505005104 70 174 0.0 4.3 0.00 0.00 0.00 45 1016.5
20260505004603 70 183 0.9 5.2 0.00 0.00 0.00 45 1016.5
20260505004103 71 181 0.9 5.2 0.00 0.00 0.00 44 1016.4
20260505003603 71 181 1.7 4.3 0.00 0.00 0.00 44 1016.4
20260505002603 72 192 0.0 4.3 0.00 0.00 0.00 43 1016.3
20260505001603 72 178 0.9 7.8 0.00 0.00 0.00 43 1016.2
20260504235605 73 149 0.9 7.8 0.00 0.00 0.00 41 1016.1
20260504234104 74 183 1.7 10.4 0.00 0.00 0.00 40 1016.1
20260504233104 74 192 1.7 7.8 0.00 0.00 0.00 39 1016.0
20260504232104 74 179 0.9 6.1 0.00 0.00 0.00 40 1016.0
20260504231103 75 177 2.6 8.7 0.00 0.00 0.00 38 1016.0
20260504224604 76 198 1.7 10.4 0.00 0.00 0.00 37 1015.8